| time (UTC) | temp F | wind direction | speed MPH | gust MPH | rain 1hr in | rain 24hr in | rain mn in | humidity % | barometer mb |
| 20260902191405 | 56 | 314 | 8.0 | 17.0 | 0.00 | 0.00 | 0.00 | 87 | 1015.4 |
| 20260902190405 | 56 | 345 | 8.0 | 20.0 | 0.00 | 0.00 | 0.00 | 87 | 1015.4 |
| 20260902185905 | 56 | 336 | 9.0 | 20.0 | 0.00 | 0.00 | 0.00 | 87 | 1015.3 |
| 20260902185406 | 56 | 315 | 9.0 | 20.0 | 0.00 | 0.00 | 0.00 | 87 | 1015.3 |
| 20260902184906 | 56 | 348 | 9.0 | 21.0 | 0.00 | 0.00 | 0.00 | 87 | 1015.1 |
| 20260902184405 | 56 | 347 | 9.0 | 20.0 | 0.00 | 0.00 | 0.00 | 87 | 1015.1 |
| 20260902183406 | 56 | 312 | 9.0 | 15.0 | 0.00 | 0.00 | 0.00 | 87 | 1015.1 |
| 20260902182905 | 56 | 351 | 8.0 | 16.0 | 0.00 | 0.00 | 0.00 | 87 | 1015.1 |
| 20260902182406 | 56 | 334 | 8.0 | 17.0 | 0.00 | 0.00 | 0.00 | 87 | 1015.0 |
| 20260902181905 | 56 | 331 | 9.0 | 20.0 | 0.00 | 0.00 | 0.00 | 87 | 1015.0 |
| 20260902181405 | 56 | 342 | 11.0 | 22.0 | 0.00 | 0.00 | 0.00 | 87 | 1015.0 |
| 20260902180406 | 56 | 346 | 9.0 | 18.0 | 0.00 | 0.00 | 0.00 | 87 | 1015.1 |
| 20260902175405 | 56 | 337 | 10.0 | 22.0 | 0.00 | 0.00 | 0.00 | 87 | 1015.3 |
| 20260902174905 | 56 | 332 | 7.0 | 20.0 | 0.00 | 0.00 | 0.00 | 87 | 1015.2 |
| 20260902174405 | 56 | 324 | 9.0 | 18.0 | 0.00 | 0.00 | 0.00 | 87 | 1015.3 |
| 20260902173405 | 56 | 344 | 7.0 | 20.0 | 0.00 | 0.00 | 0.00 | 87 | 1015.2 |
| 20260902172905 | 56 | 317 | 9.0 | 16.0 | 0.00 | 0.00 | 0.00 | 87 | 1015.2 |
| 20260902172405 | 56 | 328 | 10.0 | 20.0 | 0.00 | 0.00 | 0.00 | 87 | 1015.2 |
| 20260902171409 | 56 | 352 | 12.0 | 20.0 | 0.00 | 0.00 | 0.00 | 87 | 1015.1 |
| 20260902170905 | 56 | 345 | 10.0 | 24.0 | 0.00 | 0.00 | 0.00 | 87 | 1015.1 |
| 20260902170406 | 56 | 307 | 9.0 | 18.0 | 0.00 | 0.00 | 0.00 | 87 | 1015.0 |
| 20260902165906 | 56 | 317 | 13.0 | 26.0 | 0.00 | 0.00 | 0.00 | 87 | 1015.0 |
| 20260902165405 | 56 | 347 | 9.0 | 21.0 | 0.00 | 0.00 | 0.00 | 87 | 1015.0 |
| 20260902164906 | 56 | 342 | 10.0 | 20.0 | 0.00 | 0.00 | 0.00 | 87 | 1014.9 |
| 20260902164405 | 56 | 333 | 8.0 | 22.0 | 0.00 | 0.00 | 0.00 | 87 | 1015.0 |
| 20260902163909 | 56 | 330 | 12.0 | 22.0 | 0.00 | 0.00 | 0.00 | 87 | 1015.0 |
| 20260902163406 | 56 | 342 | 10.0 | 23.0 | 0.00 | 0.00 | 0.00 | 87 | 1014.9 |
| 20260902162905 | 56 | 342 | 9.0 | 20.0 | 0.00 | 0.00 | 0.00 | 87 | 1014.9 |
| 20260902162406 | 56 | 347 | 12.0 | 20.0 | 0.00 | 0.00 | 0.00 | 87 | 1014.9 |
| 20260902161905 | 56 | 356 | 10.0 | 22.0 | 0.00 | 0.00 | 0.00 | 87 | 1014.8 |
| 20260902161406 | 56 | 352 | 11.0 | 21.0 | 0.00 | 0.00 | 0.00 | 87 | 1014.7 |
| 20260902160905 | 56 | 328 | 12.0 | 25.0 | 0.00 | 0.00 | 0.00 | 88 | 1014.7 |
| 20260902160405 | 56 | 320 | 10.0 | 20.0 | 0.00 | 0.00 | 0.00 | 88 | 1014.7 |
| 20260902155905 | 56 | 337 | 10.0 | 21.0 | 0.00 | 0.00 | 0.00 | 88 | 1014.7 |
| 20260902154905 | 57 | 331 | 10.0 | 21.0 | 0.00 | 0.00 | 0.00 | 88 | 1014.7 |
| 20260902154405 | 57 | 355 | 13.0 | 22.0 | 0.00 | 0.00 | 0.00 | 88 | 1014.7 |
| 20260902153905 | 57 | 318 | 13.0 | 22.0 | 0.00 | 0.00 | 0.00 | 88 | 1014.6 |
| 20260902153406 | 56 | 349 | 10.0 | 21.0 | 0.00 | 0.00 | 0.00 | 88 | 1014.6 |
| 20260902152905 | 57 | 341 | 12.0 | 20.0 | 0.00 | 0.00 | 0.00 | 88 | 1014.7 |
| 20260902152405 | 56 | 328 | 12.0 | 20.0 | 0.00 | 0.00 | 0.00 | 88 | 1014.8 |
| 20260902151905 | 56 | 343 | 10.0 | 17.0 | 0.00 | 0.00 | 0.00 | 88 | 1014.7 |
| 20260902150905 | 57 | 345 | 13.0 | 22.0 | 0.00 | 0.00 | 0.00 | 88 | 1014.9 |
| 20260902150405 | 57 | 324 | 9.0 | 24.0 | 0.00 | 0.00 | 0.00 | 88 | 1014.8 |
| 20260902145906 | 57 | 338 | 12.0 | 26.0 | 0.00 | 0.00 | 0.00 | 88 | 1014.8 |
| 20260902145405 | 57 | 340 | 10.0 | 20.0 | 0.00 | 0.00 | 0.00 | 88 | 1015.0 |
| 20260902144905 | 57 | 347 | 9.0 | 21.0 | 0.00 | 0.00 | 0.00 | 88 | 1015.1 |
| 20260902144406 | 57 | 335 | 12.0 | 20.0 | 0.00 | 0.00 | 0.00 | 88 | 1015.1 |
| 20260902143405 | 57 | 343 | 10.0 | 20.0 | 0.00 | 0.00 | 0.00 | 88 | 1015.2 |
| 20260902142405 | 57 | 354 | 10.0 | 20.0 | 0.00 | 0.00 | 0.00 | 88 | 1015.4 |
| 20260902141406 | 56 | 327 | 8.0 | 21.0 | 0.00 | 0.00 | 0.00 | 88 | 1015.4 |
| 20260902140906 | 56 | 341 | 10.0 | 26.0 | 0.00 | 0.00 | 0.00 | 88 | 1015.5 |
| 20260902140405 | 56 | 347 | 9.0 | 23.0 | 0.00 | 0.00 | 0.00 | 88 | 1015.5 |
| 20260902135405 | 56 | 349 | 10.0 | 20.0 | 0.00 | 0.00 | 0.00 | 88 | 1015.5 |
| 20260902134905 | 57 | 347 | 9.0 | 20.0 | 0.00 | 0.00 | 0.00 | 87 | 1015.6 |
| 20260902134405 | 57 | 348 | 8.0 | 22.0 | 0.00 | 0.00 | 0.00 | 87 | 1015.6 |
| 20260902133905 | 57 | 306 | 7.0 | 17.0 | 0.00 | 0.00 | 0.00 | 87 | 1015.7 |
| 20260902133405 | 57 | 348 | 9.0 | 20.0 | 0.00 | 0.00 | 0.00 | 87 | 1015.7 |
| 20260902132905 | 57 | 345 | 12.0 | 21.0 | 0.00 | 0.00 | 0.00 | 87 | 1015.6 |
| 20260902132405 | 57 | 344 | 9.0 | 25.0 | 0.00 | 0.00 | 0.00 | 87 | 1015.5 |
| 20260902131905 | 57 | 352 | 12.0 | 24.0 | 0.00 | 0.00 | 0.00 | 87 | 1015.6 |
| 20260902130905 | 57 | 351 | 10.0 | 20.0 | 0.00 | 0.00 | 0.00 | 87 | 1015.5 |
| 20260902130405 | 57 | 349 | 12.0 | 25.0 | 0.00 | 0.00 | 0.00 | 87 | 1015.6 |
| 20260902125905 | 57 | 341 | 12.0 | 28.0 | 0.00 | 0.00 | 0.00 | 87 | 1015.6 |
| 20260902125406 | 57 | 336 | 10.0 | 20.0 | 0.00 | 0.00 | 0.00 | 87 | 1015.6 |
| 20260902124905 | 57 | 349 | 13.0 | 23.0 | 0.00 | 0.00 | 0.00 | 87 | 1015.4 |
| 20260902124405 | 57 | 349 | 10.0 | 21.0 | 0.00 | 0.00 | 0.00 | 87 | 1015.4 |
| 20260902123905 | 57 | 333 | 10.0 | 21.0 | 0.00 | 0.00 | 0.00 | 87 | 1015.4 |
| 20260902121905 | 57 | 345 | 13.0 | 24.0 | 0.00 | 0.00 | 0.00 | 86 | 1015.2 |
| 20260902121405 | 57 | 330 | 9.0 | 20.0 | 0.00 | 0.00 | 0.00 | 86 | 1015.2 |
| 20260902120905 | 57 | 329 | 12.0 | 22.0 | 0.00 | 0.00 | 0.00 | 86 | 1015.2 |
| 20260902120405 | 57 | 350 | 13.0 | 21.0 | 0.00 | 0.00 | 0.00 | 86 | 1015.2 |
| 20260902115905 | 57 | 337 | 13.0 | 23.0 | 0.00 | 0.00 | 0.00 | 86 | 1015.2 |
| 20260902115406 | 57 | 345 | 10.0 | 21.0 | 0.00 | 0.00 | 0.00 | 86 | 1015.2 |
| 20260902114906 | 57 | 351 | 12.0 | 23.0 | 0.00 | 0.00 | 0.00 | 86 | 1015.2 |
| 20260902113405 | 56 | 345 | 10.0 | 23.0 | 0.00 | 0.00 | 0.00 | 87 | 1015.2 |
| 20260902112905 | 56 | 354 | 9.0 | 22.0 | 0.00 | 0.00 | 0.00 | 87 | 1015.2 |
| 20260902112405 | 56 | 330 | 10.0 | 20.0 | 0.00 | 0.00 | 0.00 | 87 | 1015.3 |
| 20260902111905 | 56 | 342 | 9.0 | 18.0 | 0.00 | 0.00 | 0.00 | 87 | 1015.3 |
| 20260902111405 | 56 | 347 | 7.0 | 20.0 | 0.00 | 0.00 | 0.00 | 87 | 1015.3 |
| 20260902110905 | 56 | 332 | 9.0 | 24.0 | 0.00 | 0.00 | 0.00 | 87 | 1015.4 |
| 20260902110405 | 56 | 332 | 12.0 | 25.0 | 0.00 | 0.00 | 0.00 | 87 | 1015.2 |
| 20260902104405 | 57 | 336 | 12.0 | 23.0 | 0.00 | 0.00 | 0.00 | 86 | 1015.2 |
| 20260902103405 | 56 | 332 | 12.0 | 23.0 | 0.00 | 0.00 | 0.00 | 86 | 1015.2 |
| 20260902102904 | 56 | 357 | 12.0 | 20.0 | 0.00 | 0.00 | 0.00 | 86 | 1015.2 |
| 20260902102405 | 56 | 356 | 14.0 | 29.0 | 0.00 | 0.00 | 0.00 | 86 | 1015.1 |
| 20260902101909 | 56 | 341 | 13.0 | 23.0 | 0.00 | 0.00 | 0.00 | 86 | 1015.2 |
| 20260902101405 | 56 | 341 | 13.0 | 28.0 | 0.00 | 0.00 | 0.00 | 86 | 1015.2 |
| 20260902100905 | 56 | 345 | 12.0 | 24.0 | 0.00 | 0.00 | 0.00 | 86 | 1015.1 |
| 20260902100405 | 56 | 354 | 11.0 | 24.0 | 0.00 | 0.00 | 0.00 | 86 | 1015.2 |
| 20260902095905 | 56 | 351 | 10.0 | 20.0 | 0.00 | 0.00 | 0.00 | 85 | 1015.2 |
| 20260902095405 | 56 | 350 | 10.0 | 18.0 | 0.00 | 0.00 | 0.00 | 85 | 1015.1 |
| 20260902094905 | 56 | 286 | 10.0 | 20.0 | 0.00 | 0.00 | 0.00 | 85 | 1015.1 |
| 20260902094405 | 57 | 346 | 13.0 | 21.0 | 0.00 | 0.00 | 0.00 | 84 | 1015.2 |
| 20260902093905 | 57 | 356 | 10.0 | 24.0 | 0.00 | 0.00 | 0.00 | 84 | 1015.3 |
| 20260902092907 | 57 | 344 | 10.0 | 21.0 | 0.00 | 0.00 | 0.00 | 84 | 1015.1 |
| 20260902092406 | 57 | 346 | 14.0 | 28.0 | 0.00 | 0.00 | 0.00 | 84 | 1015.0 |
| 20260902091905 | 57 | 316 | 13.0 | 24.0 | 0.00 | 0.00 | 0.00 | 84 | 1014.9 |
| 20260902091406 | 57 | 337 | 11.0 | 20.0 | 0.00 | 0.00 | 0.00 | 85 | 1014.9 |
| 20260902090905 | 57 | 327 | 10.0 | 20.0 | 0.00 | 0.00 | 0.00 | 84 | 1014.9 |
| 20260902090406 | 57 | 333 | 9.0 | 23.0 | 0.00 | 0.00 | 0.00 | 84 | 1014.9 |
| 20260902085405 | 57 | 343 | 11.0 | 23.0 | 0.00 | 0.00 | 0.00 | 84 | 1014.6 |
| 20260902084906 | 57 | 356 | 13.0 | 25.0 | 0.00 | 0.00 | 0.00 | 85 | 1014.7 |
| 20260902084407 | 57 | 331 | 10.0 | 20.0 | 0.00 | 0.00 | 0.00 | 85 | 1014.7 |
| 20260902083909 | 57 | 344 | 12.0 | 26.0 | 0.00 | 0.00 | 0.00 | 85 | 1014.7 |
| 20260902083405 | 57 | 330 | 10.0 | 17.0 | 0.00 | 0.00 | 0.00 | 85 | 1014.7 |
| 20260902082406 | 57 | 343 | 12.0 | 23.0 | 0.00 | 0.00 | 0.00 | 84 | 1014.7 |
| 20260902081905 | 57 | 349 | 11.0 | 24.0 | 0.00 | 0.00 | 0.00 | 84 | 1014.6 |
| 20260902081405 | 57 | 331 | 9.0 | 20.0 | 0.00 | 0.00 | 0.00 | 84 | 1014.6 |
| 20260902080904 | 57 | 331 | 7.0 | 20.0 | 0.00 | 0.00 | 0.00 | 84 | 1014.6 |
| 20260902080405 | 57 | 348 | 9.0 | 22.0 | 0.00 | 0.00 | 0.00 | 84 | 1014.5 |
| 20260902075905 | 57 | 344 | 9.0 | 28.0 | 0.00 | 0.00 | 0.00 | 84 | 1014.4 |
| 20260902074905 | 56 | 301 | 12.0 | 24.0 | 0.00 | 0.00 | 0.00 | 85 | 1014.5 |
| 20260902074406 | 56 | 317 | 9.0 | 20.0 | 0.00 | 0.00 | 0.00 | 85 | 1014.5 |
| 20260902073906 | 57 | 345 | 11.0 | 20.0 | 0.00 | 0.00 | 0.00 | 85 | 1014.3 |
| 20260902073405 | 56 | 345 | 10.0 | 25.0 | 0.00 | 0.00 | 0.00 | 85 | 1014.3 |
| 20260902072905 | 56 | 343 | 9.0 | 16.0 | 0.00 | 0.00 | 0.00 | 85 | 1014.3 |
| 20260902072405 | 56 | 344 | 9.0 | 20.0 | 0.00 | 0.00 | 0.00 | 84 | 1014.4 |
| 20260902071905 | 56 | 351 | 11.0 | 22.0 | 0.00 | 0.00 | 0.00 | 84 | 1014.6 |
| 20260902071405 | 56 | 346 | 10.0 | 26.0 | 0.00 | 0.00 | 0.00 | 84 | 1014.6 |
| 20260902070405 | 56 | 329 | 9.0 | 21.0 | 0.00 | 0.00 | 0.00 | 84 | 1014.5 |
| 20260902065906 | 56 | 353 | 13.0 | 23.0 | 0.00 | 0.00 | 0.00 | 85 | 1014.5 |
| 20260902065405 | 56 | 298 | 12.0 | 20.0 | 0.00 | 0.00 | 0.00 | 85 | 1014.3 |
| 20260902064905 | 56 | 346 | 15.0 | 24.0 | 0.00 | 0.00 | 0.00 | 85 | 1014.3 |
| 20260902064405 | 56 | 348 | 11.0 | 23.0 | 0.00 | 0.00 | 0.00 | 85 | 1014.4 |
| 20260902063905 | 56 | 340 | 10.0 | 26.0 | 0.00 | 0.00 | 0.00 | 86 | 1014.4 |
| 20260902063405 | 56 | 326 | 10.0 | 26.0 | 0.00 | 0.00 | 0.00 | 86 | 1014.6 |
| 20260902062906 | 56 | 309 | 9.0 | 20.0 | 0.00 | 0.00 | 0.00 | 86 | 1014.6 |
| 20260902062409 | 56 | 316 | 9.0 | 21.0 | 0.00 | 0.00 | 0.00 | 87 | 1014.6 |
| 20260902061906 | 56 | 330 | 7.0 | 20.0 | 0.00 | 0.00 | 0.00 | 87 | 1014.7 |
| 20260902061405 | 56 | 339 | 8.0 | 17.0 | 0.00 | 0.00 | 0.00 | 87 | 1014.7 |
| 20260902060905 | 56 | 337 | 6.0 | 15.0 | 0.00 | 0.00 | 0.00 | 87 | 1014.7 |
| 20260902060405 | 56 | 294 | 9.0 | 24.0 | 0.00 | 0.00 | 0.00 | 87 | 1014.7 |
| 20260902055905 | 56 | 316 | 9.0 | 16.0 | 0.00 | 0.00 | 0.00 | 87 | 1014.5 |
| 20260902055405 | 56 | 290 | 6.0 | 14.0 | 0.00 | 0.00 | 0.00 | 87 | 1014.6 |
| 20260902054405 | 56 | 318 | 7.0 | 18.0 | 0.00 | 0.00 | 0.00 | 87 | 1014.6 |
| 20260902053905 | 56 | 275 | 7.0 | 16.0 | 0.00 | 0.00 | 0.00 | 87 | 1014.7 |
| 20260902052906 | 56 | 340 | 5.0 | 13.0 | 0.00 | 0.00 | 0.00 | 87 | 1014.6 |
| 20260902052405 | 56 | 314 | 8.0 | 17.0 | 0.00 | 0.00 | 0.00 | 87 | 1014.6 |
| 20260902051905 | 56 | 321 | 5.0 | 20.0 | 0.00 | 0.00 | 0.00 | 87 | 1014.6 |
| 20260902050904 | 56 | 346 | 9.0 | 16.0 | 0.00 | 0.00 | 0.00 | 86 | 1014.5 |
| 20260902050404 | 56 | 338 | 7.0 | 18.0 | 0.00 | 0.00 | 0.00 | 86 | 1014.5 |
| 20260902045905 | 56 | 344 | 9.0 | 18.0 | 0.00 | 0.00 | 0.00 | 86 | 1014.6 |
| 20260902045405 | 56 | 333 | 9.0 | 20.0 | 0.00 | 0.00 | 0.00 | 87 | 1014.6 |
| 20260902044905 | 56 | 314 | 7.0 | 17.0 | 0.00 | 0.00 | 0.00 | 87 | 1014.5 |
| 20260902044404 | 56 | 313 | 6.0 | 13.0 | 0.00 | 0.00 | 0.00 | 87 | 1014.5 |
| 20260902043905 | 56 | 282 | 8.0 | 14.0 | 0.00 | 0.00 | 0.00 | 87 | 1014.6 |
| 20260902043405 | 55 | 240 | 6.0 | 16.0 | 0.00 | 0.00 | 0.00 | 87 | 1014.7 |
| 20260902042905 | 55 | 300 | 5.0 | 13.0 | 0.00 | 0.00 | 0.00 | 87 | 1014.7 |
| 20260902042405 | 55 | 333 | 6.0 | 14.0 | 0.00 | 0.00 | 0.00 | 87 | 1014.7 |
| 20260902041905 | 55 | 304 | 5.0 | 10.0 | 0.00 | 0.00 | 0.00 | 87 | 1014.7 |
| 20260902041405 | 55 | 317 | 8.0 | 16.0 | 0.00 | 0.00 | 0.00 | 87 | 1014.8 |
| 20260902040905 | 55 | 312 | 6.0 | 15.0 | 0.00 | 0.00 | 0.00 | 86 | 1014.7 |
| 20260902040405 | 55 | 290 | 6.0 | 16.0 | 0.00 | 0.00 | 0.00 | 86 | 1014.8 |
| 20260902035905 | 55 | 290 | 7.0 | 13.0 | 0.00 | 0.00 | 0.00 | 86 | 1014.8 |
| 20260902035405 | 55 | 300 | 4.0 | 14.0 | 0.00 | 0.00 | 0.00 | 85 | 1014.9 |
| 20260902034405 | 55 | 302 | 5.0 | 13.0 | 0.00 | 0.00 | 0.00 | 83 | 1015.0 |
| 20260902033905 | 56 | 309 | 6.0 | 14.0 | 0.00 | 0.00 | 0.00 | 81 | 1015.0 |
| 20260902033405 | 56 | 335 | 6.0 | 12.0 | 0.00 | 0.00 | 0.00 | 80 | 1014.8 |
| 20260902032908 | 57 | 278 | 5.0 | 15.0 | 0.00 | 0.00 | 0.00 | 79 | 1014.9 |
| 20260902032405 | 57 | 338 | 7.0 | 13.0 | 0.00 | 0.00 | 0.00 | 78 | 1014.9 |
| 20260902031405 | 58 | 231 | 6.0 | 15.0 | 0.00 | 0.00 | 0.00 | 77 | 1015.0 |
| 20260902030905 | 58 | 282 | 6.0 | 14.0 | 0.00 | 0.00 | 0.00 | 76 | 1015.0 |
| 20260902030404 | 59 | 217 | 4.0 | 20.0 | 0.00 | 0.00 | 0.00 | 76 | 1014.9 |
| 20260902025904 | 59 | 306 | 6.0 | 20.0 | 0.00 | 0.00 | 0.00 | 74 | 1015.0 |
| 20260902025405 | 60 | 293 | 7.0 | 15.0 | 0.00 | 0.00 | 0.00 | 74 | 1014.9 |
| 20260902024905 | 60 | 311 | 7.0 | 17.0 | 0.00 | 0.00 | 0.00 | 74 | 1014.9 |
| 20260902024404 | 59 | 280 | 10.0 | 24.0 | 0.00 | 0.00 | 0.00 | 74 | 1014.9 |
| 20260902022905 | 60 | 255 | 7.0 | 20.0 | 0.00 | 0.00 | 0.00 | 75 | 1014.9 |
| 20260902022405 | 60 | 289 | 9.0 | 20.0 | 0.00 | 0.00 | 0.00 | 75 | 1014.9 |
| 20260902021905 | 60 | 312 | 8.0 | 21.0 | 0.00 | 0.00 | 0.00 | 76 | 1014.9 |
| 20260902021405 | 59 | 313 | 9.0 | 20.0 | 0.00 | 0.00 | 0.00 | 75 | 1014.9 |
| 20260902020905 | 59 | 308 | 8.0 | 22.0 | 0.00 | 0.00 | 0.00 | 75 | 1014.8 |
| 20260902015405 | 60 | 296 | 10.0 | 22.0 | 0.00 | 0.00 | 0.00 | 74 | 1014.8 |
| 20260902014905 | 60 | 290 | 7.0 | 20.0 | 0.00 | 0.00 | 0.00 | 75 | 1014.7 |
| 20260902014405 | 59 | 324 | 9.0 | 21.0 | 0.00 | 0.00 | 0.00 | 74 | 1014.7 |
| 20260902013905 | 59 | 333 | 9.0 | 18.0 | 0.00 | 0.00 | 0.00 | 75 | 1014.7 |
| 20260902012906 | 59 | 295 | 9.0 | 22.0 | 0.00 | 0.00 | 0.00 | 75 | 1014.7 |
| 20260902012405 | 59 | 212 | 8.0 | 17.0 | 0.00 | 0.00 | 0.00 | 75 | 1014.9 |
| 20260902011905 | 59 | 312 | 7.0 | 22.0 | 0.00 | 0.00 | 0.00 | 76 | 1014.9 |
| 20260902011405 | 59 | 292 | 10.0 | 21.0 | 0.00 | 0.00 | 0.00 | 75 | 1014.9 |
| 20260902010405 | 59 | 305 | 6.0 | 20.0 | 0.00 | 0.00 | 0.00 | 75 | 1015.1 |
| 20260902005406 | 59 | 349 | 9.0 | 17.0 | 0.00 | 0.00 | 0.00 | 74 | 1015.2 |
| 20260902004905 | 59 | 315 | 10.0 | 20.0 | 0.00 | 0.00 | 0.00 | 75 | 1015.2 |
| 20260902004406 | 59 | 340 | 10.0 | 26.0 | 0.00 | 0.00 | 0.00 | 74 | 1015.3 |
| 20260902003406 | 59 | 251 | 9.0 | 24.0 | 0.00 | 0.00 | 0.00 | 74 | 1015.4 |
| 20260902002905 | 59 | 273 | 9.0 | 18.0 | 0.00 | 0.00 | 0.00 | 74 | 1015.3 |
| 20260902002406 | 59 | 282 | 10.0 | 23.0 | 0.00 | 0.00 | 0.00 | 73 | 1015.4 |
| 20260902001905 | 59 | 319 | 8.0 | 21.0 | 0.00 | 0.00 | 0.00 | 73 | 1015.3 |
| 20260902001405 | 59 | 326 | 9.0 | 20.0 | 0.00 | 0.00 | 0.00 | 73 | 1015.4 |
| 20260902000905 | 59 | 294 | 9.0 | 21.0 | 0.00 | 0.00 | 0.00 | 73 | 1015.4 |
| 20260902000406 | 59 | 338 | 12.0 | 20.0 | 0.00 | 0.00 | 0.00 | 73 | 1015.4 |
| 20260901235905 | 60 | 284 | 10.0 | 20.0 | 0.00 | 0.00 | 0.00 | 71 | 1015.4 |
| 20260901235407 | 60 | 284 | 9.0 | 20.0 | 0.00 | 0.00 | 0.00 | 71 | 1015.3 |
| 20260901234906 | 60 | 323 | 8.0 | 18.0 | 0.00 | 0.00 | 0.00 | 71 | 1015.4 |
| 20260901234406 | 60 | 334 | 5.0 | 16.0 | 0.00 | 0.00 | 0.00 | 72 | 1015.3 |
| 20260901233905 | 60 | 249 | 10.0 | 17.0 | 0.00 | 0.00 | 0.00 | 71 | 1015.3 |
| 20260901233405 | 60 | 263 | 7.0 | 20.0 | 0.00 | 0.00 | 0.00 | 72 | 1015.3 |
| 20260901232405 | 59 | 303 | 6.0 | 20.0 | 0.00 | 0.00 | 0.00 | 74 | 1015.4 |
| 20260901230905 | 59 | 273 | 6.0 | 14.0 | 0.00 | 0.00 | 0.00 | 74 | 1015.6 |
| 20260901230406 | 59 | 254 | 6.0 | 18.0 | 0.00 | 0.00 | 0.00 | 74 | 1015.7 |
| 20260901225905 | 59 | 257 | 9.0 | 20.0 | 0.00 | 0.00 | 0.00 | 74 | 1015.5 |
| 20260901225407 | 59 | 267 | 7.0 | 16.0 | 0.00 | 0.00 | 0.00 | 76 | 1015.6 |
| 20260901224905 | 59 | 266 | 7.0 | 17.0 | 0.00 | 0.00 | 0.00 | 76 | 1015.7 |
| 20260901224406 | 58 | 232 | 7.0 | 26.0 | 0.00 | 0.00 | 0.00 | 76 | 1015.8 |
| 20260901223906 | 58 | 221 | 9.0 | 17.0 | 0.00 | 0.00 | 0.00 | 75 | 1015.7 |
| 20260901223405 | 58 | 246 | 6.0 | 21.0 | 0.00 | 0.00 | 0.00 | 76 | 1015.6 |
| 20260901222405 | 58 | 259 | 7.0 | 21.0 | 0.00 | 0.00 | 0.00 | 75 | 1015.6 |
| 20260901221905 | 58 | 308 | 9.0 | 20.0 | 0.00 | 0.00 | 0.00 | 75 | 1015.6 |
| 20260901221405 | 58 | 300 | 6.0 | 17.0 | 0.00 | 0.00 | 0.00 | 76 | 1015.6 |
| 20260901220906 | 57 | 348 | 5.0 | 17.0 | 0.00 | 0.00 | 0.00 | 75 | 1015.6 |
| 20260901220405 | 57 | 293 | 8.0 | 21.0 | 0.00 | 0.00 | 0.00 | 75 | 1015.5 |
| 20260901215906 | 57 | 274 | 9.0 | 20.0 | 0.00 | 0.00 | 0.00 | 75 | 1015.5 |
| 20260901215406 | 57 | 329 | 8.0 | 21.0 | 0.00 | 0.00 | 0.00 | 75 | 1015.5 |
| 20260901214405 | 57 | 335 | 8.0 | 21.0 | 0.00 | 0.00 | 0.00 | 76 | 1015.6 |
| 20260901213405 | 57 | 334 | 8.0 | 18.0 | 0.00 | 0.00 | 0.00 | 75 | 1015.6 |
| 20260901212905 | 57 | 337 | 8.0 | 23.0 | 0.00 | 0.00 | 0.00 | 75 | 1015.4 |
| 20260901212405 | 56 | 294 | 7.0 | 25.0 | 0.00 | 0.00 | 0.00 | 75 | 1015.4 |
| 20260901211905 | 56 | 310 | 6.0 | 20.0 | 0.00 | 0.00 | 0.00 | 75 | 1015.5 |
| 20260901211405 | 56 | 294 | 7.0 | 16.0 | 0.00 | 0.00 | 0.00 | 75 | 1015.5 |
| 20260901210405 | 56 | 270 | 5.0 | 18.0 | 0.00 | 0.00 | 0.00 | 75 | 1015.6 |
| 20260901205905 | 55 | 306 | 5.0 | 12.0 | 0.00 | 0.00 | 0.00 | 75 | 1015.7 |
| 20260901205407 | 55 | 203 | 5.0 | 21.0 | 0.00 | 0.00 | 0.00 | 75 | 1015.8 |
| 20260901204906 | 55 | 239 | 6.0 | 18.0 | 0.00 | 0.00 | 0.00 | 75 | 1015.9 |
| 20260901204405 | 54 | 216 | 6.0 | 13.0 | 0.00 | 0.00 | 0.00 | 76 | 1015.8 |
| 20260901203904 | 54 | 205 | 8.0 | 15.0 | 0.00 | 0.00 | 0.00 | 76 | 1015.8 |
| 20260901202906 | 53 | 210 | 7.0 | 25.0 | 0.00 | 0.00 | 0.00 | 78 | 1015.8 |
| 20260901202405 | 52 | 215 | 7.0 | 18.0 | 0.00 | 0.00 | 0.00 | 79 | 1015.9 |
| 20260901201905 | 52 | 223 | 6.0 | 12.0 | 0.00 | 0.00 | 0.00 | 79 | 1016.0 |
| 20260901201406 | 52 | 214 | 6.0 | 18.0 | 0.00 | 0.00 | 0.00 | 80 | 1016.0 |
| 20260901200905 | 51 | 293 | 6.0 | 12.0 | 0.00 | 0.00 | 0.00 | 80 | 1016.0 |
| 20260901200405 | 51 | 320 | 5.0 | 13.0 | 0.00 | 0.00 | 0.00 | 81 | 1016.1 |
| 20260901195904 | 51 | 225 | 4.0 | 10.0 | 0.00 | 0.00 | 0.00 | 81 | 1016.0 |
| 20260901194905 | 51 | 224 | 4.0 | 13.0 | 0.00 | 0.00 | 0.00 | 81 | 1015.9 |
| 20260901194405 | 51 | 233 | 6.0 | 15.0 | 0.00 | 0.00 | 0.00 | 81 | 1015.8 |
| 20260901193905 | 51 | 223 | 6.0 | 13.0 | 0.00 | 0.00 | 0.00 | 81 | 1015.8 |
| 20260901193405 | 51 | 315 | 7.0 | 23.0 | 0.00 | 0.00 | 0.00 | 82 | 1015.7 |
| 20260901192906 | 51 | 218 | 4.0 | 13.0 | 0.00 | 0.00 | 0.00 | 82 | 1015.6 |
| 20260901191905 | 51 | 200 | 5.0 | 20.0 | 0.00 | 0.00 | 0.00 | 83 | 1015.6 |